Location: Degersen
(52.2871°N, 9.5716°E)
Time: 08:46:49
(UTC+00:00)

Cosmos 1461 - Pass Details

Date: 20 January 2026
Orbit: 426 x 502 km, 65.0° (Epoch: 18 February)

Event Time Altitude Azimuth Distance (km) Brightness Sun altitude
Exits shadow 05:09:13 - 200° (SSW) 2,114 5.7 -19.3°
Reaches altitude 10° 05:10:14 10° 197° (SSW) 1,715 5.2 -19.2°
Maximum altitude 05:13:54 44° 125° (SE) 714 3.8 -18.6°
Drops below altitude 10° 05:17:36 10° 52° (NE) 1,736 5.9 -18.0°
Sets 05:19:50 0° 46° (NE) 2,624 6.8 -17.7°
